DateTimeUTC,F1_A11,F1_S11,BsB_S11,BsG_S11,BsR_S11,BbsB_S11,BbsG_S11,BbsR_S11,BaB_A11,BaG_A11,BaR_A11,Tu_S11,T_S11,Uu_S11,U_S11,P_S11,T1_A11
2021-07-26T07:00:00Z,00000200,20000000,,,,,,,-000.06,0000.51,0000.38,18.1,24.9,06.7,04.4,0674.2,31.0
2021-07-26T07:01:00Z,00000200,20000000,,,,,,,0000.10,-000.27,-000.25,18.1,24.9,06.9,04.6,0674.2,31.0
2021-07-26T07:02:00Z,00000200,20000000,,,,,,,-000.16,0000.27,-000.17,18.1,25.0,07.0,04.6,0674.1,31.0
2021-07-26T07:03:00Z,00000200,60000000,,,,,,,0000.21,-000.32,0000.31,18.1,25.0,07.0,04.6,0674.2,31.0
2021-07-26T07:04:00Z,00000200,40000000,0001.16,0000.32,-000.02,-000.18,0000.04,-000.31,0000.27,0000.39,0000.32,18.3,24.8,06.9,04.6,0675.1,31.0
2021-07-26T07:05:00Z,00000200,00000000,0000.32,0000.36,0000.38,0000.35,-000.12,0000.14,0000.10,-000.01,0000.02,18.4,24.8,07.2,04.8,0675.1,31.0
2021-07-26T07:06:00Z,00000200,00000000,0000.27,0000.24,-000.10,0000.80,-000.09,0000.14,0000.18,-000.11,-000.17,18.4,24.7,07.2,04.8,0675.1,31.0
2021-07-26T07:07:00Z,00000200,00000000,0001.01,0000.19,-000.17,-000.08,0000.03,-000.13,-000.32,0000.32,0000.16,18.4,24.7,07.0,04.8,0675.1,31.0
2021-07-26T07:08:00Z,00000200,00000000,0000.73,0000.44,0000.13,0000.03,-000.19,-000.04,0000.29,-000.06,0000.20,18.4,24.7,07.0,04.7,0675.1,31.0
2021-07-26T07:09:00Z,00000200,00000000,0000.25,0000.03,0000.16,-000.12,0000.04,-000.11,-000.25,-000.11,-000.20,18.3,24.7,07.0,04.7,0675.1,31.0
2021-07-26T07:10:00Z,00000200,00000000,0000.52,0000.46,-000.06,-000.08,-000.38,-000.31,-000.02,-000.11,-000.13,18.3,24.7,06.9,04.7,0675.1,31.0
2021-07-26T07:11:00Z,00000200,00000000,0000.91,0000.25,-000.44,-000.00,-000.30,-000.21,0000.33,0000.02,-000.11,18.3,24.7,06.9,04.7,0675.1,31.0
2021-07-26T07:12:00Z,00000200,00000000,0000.30,0000.13,-000.07,0000.25,-000.15,-000.44,0000.19,0000.47,0000.51,18.3,24.7,07.0,04.8,0675.0,31.0
2021-07-26T07:13:00Z,00000200,00000000,0000.52,0000.33,0000.25,0000.10,0000.11,-000.35,0000.03,0000.29,0000.24,18.3,24.7,07.1,04.8,0675.1,31.0
2021-07-26T07:14:00Z,00000200,00000000,-000.49,0000.45,0000.09,0000.49,0000.00,-000.17,0000.31,0000.40,0000.12,18.3,24.7,07.2,04.9,0675.1,31.0
2021-07-26T07:15:00Z,00000200,00000000,0000.19,0000.51,-000.27,0000.12,0000.28,-000.29,0000.55,-000.12,0000.25,18.4,24.7,07.2,04.9,0675.1,31.0
2021-07-26T07:16:00Z,00000200,00000000,0000.11,0000.51,-000.09,0000.27,-000.41,-000.16,-000.20,-000.05,-000.18,18.4,24.7,07.3,05.0,0675.1,31.0
2021-07-26T07:17:00Z,00000200,00000000,0000.33,0000.37,0000.14,-000.16,0000.12,0000.22,0000.08,0000.40,0000.42,18.4,24.7,07.4,05.0,0675.1,31.0
2021-07-26T07:18:00Z,00000200,00000000,0000.23,0000.17,0000.25,0000.38,0000.17,0000.40,0000.16,-000.07,-000.34,18.4,24.7,07.3,04.9,0675.0,31.0
2021-07-26T07:19:00Z,00000200,00000000,0000.45,0000.41,0000.07,0000.18,0000.09,-000.23,0000.74,0000.55,0000.48,18.4,24.7,07.5,05.1,0675.0,31.0
2021-07-26T07:20:00Z,00000200,00000000,0001.05,0000.36,-000.26,0000.24,-000.25,0000.07,-000.62,-000.35,-000.38,18.4,24.7,07.4,05.0,0675.0,31.0
2021-07-26T07:21:00Z,00000200,00000000,0000.27,0000.09,-000.14,0000.05,0000.27,-000.01,-000.12,-000.18,0000.39,18.4,24.7,07.2,04.9,0675.0,31.0
2021-07-26T07:22:00Z,00000200,00000000,0001.34,0000.39,0000.02,0000.10,0000.17,-000.21,-000.06,-000.04,-000.54,18.4,24.7,07.0,04.8,0675.1,31.0
2021-07-26T07:23:00Z,00000200,00000000,0000.71,0000.27,-000.21,0000.43,-000.04,-000.43,0000.17,-000.01,-000.00,18.4,24.7,06.7,04.6,0675.1,31.0
2021-07-26T07:24:00Z,00000200,00000000,0000.56,0000.26,-000.15,-000.43,0000.10,-000.19,-000.09,-000.18,0000.07,18.4,24.7,06.8,04.6,0675.1,31.0
2021-07-26T07:25:00Z,00000200,00000000,-000.25,0000.48,0000.20,0000.02,-000.05,-000.12,0000.13,0000.35,0000.35,18.3,24.7,06.7,04.6,0675.1,31.0
2021-07-26T07:26:00Z,00000200,00000000,0000.41,0000.14,0000.14,-000.04,-000.12,-000.12,0000.57,0000.29,-000.05,18.3,24.7,07.0,04.7,0675.1,31.0
2021-07-26T07:27:00Z,00000200,00000000,0001.20,0000.49,0000.09,0000.37,0000.04,-000.26,-000.11,0000.47,0000.19,18.3,24.7,07.2,04.9,0675.1,31.0
2021-07-26T07:28:00Z,00000200,00000000,0000.45,0000.52,0000.02,0000.05,-000.19,0000.21,0000.52,0000.55,0000.27,18.3,24.7,07.4,05.0,0675.1,31.0
2021-07-26T07:29:00Z,00000200,00000000,0000.18,0000.25,0000.01,-000.10,0000.03,-000.30,0000.12,-000.06,0000.51,18.3,24.7,07.5,05.1,0675.1,31.0
2021-07-26T07:30:00Z,00000200,00000000,0000.82,0000.49,0000.18,-000.15,-000.14,0000.03,0000.15,0000.08,0000.00,18.4,24.7,07.4,05.0,0675.1,31.0
2021-07-26T07:31:00Z,00000200,00000000,0001.03,0000.16,-000.10,0000.16,0000.05,-000.37,0000.21,0000.02,-000.17,18.4,24.7,07.5,05.1,0675.1,31.0
2021-07-26T07:32:00Z,00000200,00000000,0000.28,0000.32,-000.01,-000.27,-000.04,-000.15,0000.30,0000.09,0000.29,18.4,24.7,07.5,05.1,0675.1,31.0
2021-07-26T07:33:00Z,00000200,00000000,0000.91,0000.38,-000.11,0000.32,0000.03,0000.02,0000.14,0000.35,0000.30,18.4,24.7,07.5,05.1,0675.1,31.0
2021-07-26T07:34:00Z,00000200,00000000,0000.32,0000.38,0000.20,-000.06,0000.02,0000.06,-000.11,-000.13,-000.19,18.4,24.7,07.5,05.1,0675.1,31.0
2021-07-26T07:35:00Z,00000200,00000000,0000.92,0000.29,0000.01,-000.10,-000.17,-000.21,-000.17,-000.24,-000.43,18.4,24.7,07.3,04.9,0675.1,31.0
2021-07-26T07:36:00Z,00000200,00000000,0000.07,-000.23,0000.32,-000.41,0000.03,-000.06,-000.60,-000.25,-000.27,18.4,24.7,07.0,04.8,0675.1,31.0
2021-07-26T07:37:00Z,00000200,00000000,-000.09,0000.44,0000.09,-000.90,-000.01,-000.15,0000.33,-000.33,0000.29,18.4,24.7,06.8,04.6,0675.1,31.0
2021-07-26T07:38:00Z,00000200,00000000,0000.25,0000.26,0000.15,-000.07,-000.11,-000.15,-000.30,-000.20,-000.13,18.4,24.7,06.7,04.6,0675.1,31.0
2021-07-26T07:39:00Z,00000200,00000000,0000.40,0000.17,-000.09,0000.12,0000.15,-000.35,-000.07,0000.32,-000.24,18.3,24.7,06.8,04.6,0675.1,31.0
2021-07-26T07:40:00Z,00000200,00000000,-000.16,0000.30,-000.08,-000.29,-000.11,0000.12,0000.08,0000.20,0000.30,18.3,24.7,06.7,04.6,0675.1,31.0
2021-07-26T07:41:00Z,00000200,00000000,-000.13,0000.09,0000.01,-000.05,0000.00,-000.38,0000.21,0000.29,0000.35,18.3,24.6,06.8,04.6,0675.1,31.0
2021-07-26T07:42:00Z,00000200,00000000,0001.28,0000.16,0000.17,0000.16,-000.22,-000.08,0000.24,-000.24,-000.29,18.3,24.7,06.8,04.6,0675.1,31.0
2021-07-26T07:43:00Z,00000200,00000000,0001.11,0000.15,0000.20,0000.62,-000.09,-000.07,0000.12,0000.29,0000.08,18.3,24.6,06.8,04.6,0675.2,31.0
2021-07-26T07:44:00Z,00000200,00000000,-000.03,0000.32,0000.16,0000.35,0000.01,-000.02,-000.02,0000.01,0000.33,18.3,24.7,06.7,04.6,0675.2,31.0
2021-07-26T07:45:00Z,00000200,00000000,-000.10,0000.35,0000.05,-000.37,0000.08,-000.04,-000.11,-000.24,-000.13,18.4,24.7,06.7,04.6,0675.2,31.0
2021-07-26T07:46:00Z,00000200,00000000,0000.25,0000.29,0000.19,-000.12,-000.17,-000.02,0000.04,0000.17,-000.11,18.4,24.7,06.6,04.5,0675.2,31.0
2021-07-26T07:47:00Z,00000200,00000000,0000.43,0000.39,0000.11,0000.03,0000.27,-000.14,0000.45,0000.33,0000.22,18.4,24.7,06.8,04.6,0675.2,31.0
2021-07-26T07:48:00Z,00000200,00000000,0000.92,0000.39,-000.03,0000.25,0000.13,-000.18,0000.09,0000.42,0000.46,18.4,24.7,06.8,04.6,0675.2,31.0
2021-07-26T07:49:00Z,00000200,00000000,0000.85,0000.27,0000.19,-000.20,-000.07,0000.22,0000.29,0000.21,0000.25,18.4,24.7,07.0,04.8,0675.2,31.0
2021-07-26T07:50:00Z,00000200,00000000,0000.47,0000.36,0000.11,-000.28,-000.13,-000.53,0000.51,0000.38,0000.15,18.4,24.7,07.1,04.8,0675.3,31.0
2021-07-26T07:51:00Z,00000200,00000000,0000.67,0000.34,0000.30,-000.11,0000.09,0000.25,-000.14,0000.07,-000.16,18.4,24.7,07.2,04.9,0675.3,31.0
2021-07-26T07:52:00Z,00000200,00000000,0001.70,0000.17,0000.03,0000.10,0000.17,0000.03,0000.12,-000.04,0000.12,18.4,24.7,07.1,04.9,0675.3,31.0
2021-07-26T07:53:00Z,00000200,00000000,0000.79,0000.29,0000.18,-000.18,0000.05,-000.15,0000.13,0000.35,0000.14,18.4,24.7,07.1,04.9,0675.3,31.0
2021-07-26T07:54:00Z,00000200,00000000,0000.65,0000.62,0000.15,0000.16,0000.04,-000.43,0000.03,-000.22,0000.08,18.4,24.6,07.2,04.9,0675.4,31.0
2021-07-26T07:55:00Z,00000200,00000000,0000.49,0000.39,-000.04,-000.08,0000.14,0000.08,0000.16,0000.14,-000.33,18.4,24.7,07.1,04.9,0675.4,31.0
2021-07-26T07:56:00Z,00000200,00000000,0000.27,0000.33,-000.14,-000.22,-000.29,0000.33,0000.00,0000.17,0000.25,18.4,24.6,07.0,04.8,0675.4,31.0
2021-07-26T07:57:00Z,00000200,40000000,,,,,,,-000.00,-000.11,-000.31,18.4,24.6,06.7,04.6,0675.7,31.0
2021-07-26T07:58:00Z,00000200,60000000,,,,,,,-000.15,-000.48,0000.37,18.1,24.8,07.0,04.6,0674.5,31.0
2021-07-26T07:59:00Z,00000200,20000000,,,,,,,-000.17,0000.07,-000.23,18.1,24.9,06.8,04.5,0674.5,31.0
